Find Starlink 6036

NORAD ID: 56800 Int'l Des: 2023-078 Owner: SPXS Country: US Constellation: starlink operational
LEOCIRCULAR

实时位置

正在加载3D地球...

关于 Starlink 6036

正在加载描述...

即将过境

Passes for default location (London). Set your location on the main map for personalized predictions.

高度历史

Loading altitude history...

两行轨道根数

1 56800U 23078AK 26106.84074608 .00000282 00000-0 31432-4 0 9990
2 56800 69.9993 248.3101 0002896 276.4945 83.5884 14.98334157158394
Epoch: Apr 16, 2026 • Age: 13 hours

当前状态

高度 587.3 km
速度 7.57 km/s
星下点 -45.40°S, 111.71°W
发射日期 May 31, 2023
运行时间 2.8 years
类型 internet

技术详情

分类 Payload
质量 305.00 kg
干质量 290.00 kg
总质量 305.00 kg
长度 0.20 m
直径 2.80 m
跨度 9.00 m
形状 Box + pan
制造商 SPXS
平台类型 Starlink
阶段状态 In Orbit
所有者/国家 SPXS/US

Most Searched